TimeMDT,TemperatureF,Dew PointF,Humidity,Sea Level PressureIn,VisibilityMPH,Wind Direction,Wind SpeedMPH,Gust SpeedMPH,PrecipitationIn,Events,Conditions,WindDirDegrees,DateUTC
12:53 AM,28.0,18.0,66,29.97,10.0,Variable,4.6,-,N/A,,Clear,0,2014-03-21 06:53:00
1:53 AM,25.0,16.0,69,29.99,10.0,SSE,5.8,-,N/A,,Clear,150,2014-03-21 07:53:00
2:53 AM,26.1,16.0,66,29.99,10.0,SE,4.6,-,N/A,,Partly Cloudy,130,2014-03-21 08:53:00
3:53 AM,26.1,16.0,66,30.00,10.0,Calm,Calm,-,N/A,,Overcast,0,2014-03-21 09:53:00
4:53 AM,26.1,15.1,63,30.02,10.0,Calm,Calm,-,N/A,,Overcast,0,2014-03-21 10:53:00
5:53 AM,26.1,17.1,69,30.06,10.0,Calm,Calm,-,N/A,,Overcast,0,2014-03-21 11:53:00
6:53 AM,25.0,18.0,75,30.10,10.0,North,4.6,-,N/A,,Overcast,350,2014-03-21 12:53:00
7:53 AM,25.0,18.0,75,30.13,10.0,Calm,Calm,-,N/A,,Overcast,0,2014-03-21 13:53:00
9:53 AM,30.0,18.0,61,30.15,10.0,ESE,5.8,-,N/A,,Clear,120,2014-03-21 15:53:00
10:53 AM,33.1,17.1,52,30.17,10.0,ENE,6.9,-,N/A,,Mostly Cloudy,70,2014-03-21 16:53:00
11:53 AM,36.0,17.1,46,30.16,10.0,ESE,9.2,-,N/A,,Partly Cloudy,110,2014-03-21 17:53:00
12:53 PM,33.1,16.0,50,30.15,10.0,East,5.8,16.1,N/A,,Overcast,90,2014-03-21 18:53:00
1:53 PM,36.0,15.1,43,30.13,10.0,SE,10.4,-,N/A,,Overcast,140,2014-03-21 19:53:00
2:53 PM,36.0,17.1,46,30.11,10.0,ESE,16.1,-,N/A,,Overcast,120,2014-03-21 20:53:00
3:53 PM,37.9,16.0,41,30.08,10.0,SE,6.9,16.1,N/A,,Overcast,140,2014-03-21 21:53:00
4:53 PM,36.0,16.0,44,30.08,10.0,ESE,8.1,-,N/A,,Mostly Cloudy,110,2014-03-21 22:53:00
5:53 PM,36.0,16.0,44,30.08,10.0,Calm,Calm,-,N/A,,Mostly Cloudy,0,2014-03-21 23:53:00
6:53 PM,33.1,16.0,50,30.10,10.0,ENE,6.9,-,N/A,,Partly Cloudy,60,2014-03-22 00:53:00
7:53 PM,32.0,17.1,54,30.11,10.0,ENE,8.1,-,N/A,,Mostly Cloudy,60,2014-03-22 01:53:00
9:53 PM,30.0,18.0,61,30.14,10.0,NE,5.8,-,N/A,,Overcast,50,2014-03-22 03:53:00
10:53 PM,28.0,21.0,75,30.14,10.0,NNE,6.9,-,N/A,,Overcast,20,2014-03-22 04:53:00
11:53 PM,27.0,19.9,75,30.13,10.0,North,8.1,-,N/A,,Overcast,10,2014-03-22 05:53:00